[keps] orb12166.2l.amsat
Ray Hoad
ray.hoad at mypbmail.com
Thu Jun 14 19:20:42 PDT 2012
SB KEPS @ AMSAT $ORB12166.N
2Line Orbital Elements 12166.AMSAT
HR AMSAT ORBITAL ELEMENTS FOR AMATEUR SATELLITES IN NASA FORMAT
FROM WA5QGD FORT WORTH,TX June 14, 2012
Send SUBSCRIBE KEPS/UNSUBSCRIBE KEPS to majordomo at amsat.org only
BID: ORB12166.N
DECODE 2-LINE ELSETS WITH THE FOLLOWING KEY:
1 AAAAAU 00 0 0 BBBBB.BBBBBBBB .CCCCCCCC 00000-0 00000-0 0 DDDZ
2 AAAAA EEE.EEEE FFF.FFFF GGGGGGG HHH.HHHH III.IIII JJ.JJJJJJJJKKKKKZ
KEY: A-CATALOGNUM B-EPOCHTIME C-DECAY D-ELSETNUM E-INCLINATION F-RAAN
G-ECCENTRICITY H-ARGPERIGEE I-MNANOM J-MNMOTION K-ORBITNUM Z-CHECKSUM
TO ALL RADIO AMATEURS BT
AO-07
1 07530U 74089B 12165.55407552 -.00000027 00000-0 10000-3 0 4046
2 07530 101.4023 162.9048 0011736 291.1406 068.8402 12.53589751719594
FO-29
1 24278U 96046B 12165.85803408 .00000056 00000-0 91425-4 0 08758
2 24278 098.5860 266.9475 0351026 038.0639 324.4750 13.52984571781507
SO-33
1 25509U 98061B 12165.91561362 .00000480 00000-0 82080-4 0 02552
2 25509 031.4338 352.2096 0352460 174.7493 185.6965 14.28770724712188
RS-22
1 27939U 03042A 12166.53679821 .00000631 00000-0 12878-3 0 4462
2 27939 097.8133 007.4892 0012310 274.7905 085.1912 14.64040362465498
VO-52
1 28650U 05017B 12165.61388063 .00001564 00000-0 19755-3 0 1262
2 28650 097.5971 196.7431 0027489 054.4587 305.9175 14.82980063384449
HO-68
1 36122U 09072B 12166.40321011 -.00000044 00000-0 00000 0 0 5523
2 36122 100.3613 225.8063 0007813 114.2244 245.9684 13.16296331120021
UO-11
1 14781U 84021B 12165.67389998 .00000810 00000-0 11269-3 0 09104
2 14781 097.9533 225.2254 0009996 049.3066 310.9005 14.80462387519413
AO-16
1 20439U 90005D 12165.87344088 .00000145 00000-0 69787-4 0 04939
2 20439 098.4306 109.3407 0010899 164.1243 196.0283 14.32058009169526
LO-19
1 20442U 90005G 12165.89694452 .00000131 00000-0 64199-4 0 04193
2 20442 098.3943 112.3812 0012301 156.6246 203.5498 14.32276447169710
AO-27
1 22825U 93061C 12166.44606042 .00000017 00000-0 23573-4 0 1264
2 22825 098.5738 109.3038 0007575 290.4079 069.6285 14.29464232976083
IO-26
1 22826U 93061D 12166.51744674 .00000143 00000-0 72805-4 0 8761
2 22826 098.5696 109.7445 0008191 285.4039 074.6235 14.29739126976222
GO-32
1 25397U 98043D 12166.30438691 .00000077 00000-0 51960-4 0 7997
2 25397 098.3620 145.1553 0000625 347.7880 012.3294 14.23279069723613
NO-44
1 26931U 01043C 12165.82334906 .00000448 00000-0 20630-3 0 00642
2 26931 067.0517 129.0106 0007665 263.3722 096.6511 14.29805274558768
SO-50
1 27607U 02058C 12165.77392259 .00000821 00000-0 14407-3 0 7860
2 27607 064.5594 305.2828 0082818 249.4044 109.8177 14.72396592509464
CO-55
1 27844U 03031E 12165.61238551 .00000242 00000-0 13177-3 0 3958
2 27844 098.7024 174.0425 0008859 231.2482 128.7901 14.21028529464389
CO-57
1 27848U 03031J 12165.54497950 .00000217 00000-0 12077-3 0 03471
2 27848 098.7110 173.3087 0008659 236.4301 123.6046 14.20779554464317
AO-51
1 28375U 04025K 12165.46947333 .00000193 00000-0 70362-4 0 2909
2 28375 098.1475 130.9185 0084784 052.2402 308.6436 14.40951581418230
CP3
1 31129U 07012N 12165.57085980 .00000734 00000-0 17598-3 0 1880
2 31129 097.8842 173.5602 0102036 133.9232 227.0401 14.53077182273450
CO-65
1 32785U 08021C 12165.66850738 .00001592 00000-0 20203-3 0 03344
2 32785 097.7995 226.8031 0015777 074.4227 285.8738 14.82991841223249
PRISM
1 33493U 09002B 12166.42840077 .00002587 00000-0 31767-3 0 7886
2 33493 098.1702 306.9246 0017816 308.5494 051.4204 14.83892337183340
SOHLA-1
1 33496U 09002E 12165.83729951 .00000400 00000-0 74952-4 0 07617
2 33496 098.1046 277.5950 0007552 058.1359 302.0581 14.69975468181750
SO-67
1 35870U 09049F 12166.42839084 .00004637 00000-0 19530-3 0 485
2 35870 097.2321 202.2724 0002648 140.6537 342.9503 15.23822169152197
TISAT-1
1 36799U 10035E 12166.36998303 .00001968 00000-0 25478-3 0 646
2 36799 098.0620 242.6842 0014987 176.3797 183.7528 14.81957995104072
STUDSAT
1 36801U 10035G 12165.90347714 .00006013 00000-0 72228-3 0 04615
2 36801 098.0718 242.9100 0012749 164.3930 195.7676 14.84306629104032
FO-69
1 37227U 0 12165.31385081 .00000551 00000-0 85727-4 0 02060
2 37227 071.9687 320.5061 0017601 323.0507 036.9443 14.77080688035526
FO-70
1 37380U 0 12165.31875240 .00000518 00000-0 81583-4 0 02116
2 37380 071.9719 321.0504 0018131 319.9132 040.0692 14.76832026035417
ALMASAT-1
1 38078U 12006B 12166.34852861 .00014679 00000-0 40271-3 0 2995
2 38078 069.4971 323.6890 0760981 252.2672 099.4030 14.09107128 17154
XATCOBEO
1 38082U 12006F 12166.50517906 .00036724 00000-0 89277-3 0 3160
2 38082 069.4956 321.5677 0739698 251.0918 100.8382 14.15942625 17213
NOAA-10
1 16969U 86073A 12165.72585712 .00000075 00000-0 48136-4 0 09568
2 16969 098.5805 194.8415 0011361 244.1366 115.8618 14.27556856339372
NOAA-11
1 19531U 88089A 12165.75053596 -.00000149 00000-0 -54579-4 0 09537
2 19531 098.7306 250.9816 0010381 232.2600 127.7636 14.14969834224024
NOAA-12
1 21263U 91032A 12165.95899888 .00000081 00000-0 53083-4 0 04535
2 21263 098.7289 187.6388 0013086 208.0345 152.0132 14.25500603096094
MET-3/5
1 21655U 91056A 12166.49010021 -.00000397 00000-0 -10636-2 0 4335
2 21655 082.5553 154.0929 0012593 334.1232 025.9259 13.17042172 1536
MET-2/21
1 22782U 93055A 12165.68536838 -.00000059 00000-0 -66730-4 0 04453
2 22782 082.5485 035.2933 0022796 158.7015 201.5106 13.83684184948689
OKEAN-4
1 23317U 94066A 12165.92961857 .00000952 00000-0 11167-3 0 09426
2 23317 082.5406 034.2535 0022089 007.5782 352.5767 14.83804994954323
NOAA-14
1 23455U 94089A 12165.93330240 .00000056 00000-0 52640-4 0 09361
2 23455 098.8271 249.4729 0009241 335.3158 024.7567 14.13903058900337
NOAA-15
1 25338U 98030A 12165.75685864 .00000239 00000-0 12065-3 0 02966
2 25338 098.6897 152.6968 0011514 115.7213 244.5127 14.25081344732367
RESURS
1 25394U 98043A 12165.95938030 -.00000002 00000-0 16585-4 0 01151
2 25394 098.3184 154.3663 0000356 248.8549 111.2593 14.24289200723949
FENGYUN1
1 25730U 99025A 12165.87840694 .00001526 00000-0 89468-3 0 6262
2 25730 098.8460 124.9163 0020415 016.2342 343.9492 14.09595802674149
OKEAN-0
1 25860U 99039A 12165.93480607 .00000548 00000-0 90365-4 0 06556
2 25860 097.9362 128.6445 0000530 050.7774 309.3480 14.74216389694097
NOAA-16
1 26536U 00055A 12165.70864399 -.00000125 00000-0 -42758-4 0 07801
2 26536 099.0946 207.7785 0011453 093.3512 266.8963 14.12747112604543
NOAA-17
1 27453U 02032A 12165.86171849 .00000090 00000-0 56646-4 0 07377
2 27453 098.3368 193.0672 0011998 161.8495 198.3099 14.24444310518280
NOAA-18
1 28654U 05018A 12165.87620872 .00000341 00000-0 21237-3 0 02140
2 28654 099.0451 123.9358 0014479 160.5243 199.6507 14.11661344364092
NOAA-19
1 33591U 09005A 12165.88334822 .00000551 00000-0 32838-3 0 04069
2 33591 098.8630 105.7128 0014698 033.7072 326.5033 14.11350553172540
HUBBLE
1 20580U 90037B 12166.20154201 .00001394 00000-0 89930-4 0 176
2 20580 028.4688 163.0832 0003008 027.5789 332.4986 15.02553162 14285
ISS
1 25544U 98067A 12166.51132299 .00012501 00000-0 18019-3 0 7458
2 25544 051.6380 135.7761 0010768 066.6258 034.5777 15.56363414777596
CO-58
1 28895U 05043F 12166.41139944 .00000856 00000-0 18454-3 0 2004
2 28895 097.9136 032.8059 0018498 156.0953 204.1116 14.60644161353251
FALCON
1 30776U 07006E 12165.81193135 .00004349 00000-0 28277-3 0 03793
2 30776 035.4329 297.4563 0002425 340.4730 019.5894 15.07562851289747
MAST
1 31126U 07012K 12165.98890774 .00000616 00000-0 14707-3 0 04912
2 31126 097.8746 177.2775 0094642 120.1485 240.9129 14.54165738273809
CAPE1
1 31130U 07012P 12165.54008777 .00000934 00000-0 22161-3 0 04931
2 31130 097.8837 173.2387 0102354 134.5899 226.3715 14.52945770273245
COMPASS
1 32787U 08021E 12166.16992214 .00002300 00000-0 28194-3 0 3275
2 32787 097.7999 227.5713 0016418 072.3237 287.9760 14.84013746223363
AAUSAT2
1 32788U 08021F 12165.87057394 .00002944 00000-0 35622-3 0 03205
2 32788 097.8041 227.6604 0016394 073.2553 287.0449 14.84336262223341
DO-64
1 32789U 08021G 12165.71944018 .00003932 00000-0 45701-3 0 03361
2 32789 097.8119 229.5182 0015828 070.8649 289.4275 14.85825234223368
CO-66
1 32791U 08021J 12165.61870398 .00002321 00000-0 28840-3 0 03199
2 32791 097.7992 226.7777 0016853 074.4925 285.8148 14.83428705223217
RS-30
1 32953U 08025A 12166.47277770 .00000010 00000-0 00000 0 0 8689
2 32953 082.5018 296.8249 0017890 316.5738 043.3935 12.43024433184226
TACSAT-3
1 35001U 09028A 12121.72616188 .15204951 73582-5 42606-3 0 00016
2 35001 040.4259 351.8840 0007146 275.2650 085.0693 16.45157000166990
PHARMSAT
1 35002U 09028B 12165.91022011 .00160764 00000-0 65308-3 0 9348
2 35002 040.4569 088.3726 0011416 222.5029 137.4917 15.84823837173809
METEOR-M
1 35865U 09049A 12166.33443269 -.00000007 00000-0 16602-4 0 5015
2 35865 098.6548 220.7141 0003377 066.7401 293.4130 14.21864089142192
RS-38
1 35869U 09049E 12166.28565212 .00000042 00000-0 38362-4 0 5077
2 35869 098.6501 220.6618 0005512 063.7640 296.4099 14.22074258142209
JUGNU
1 37839U 11058B 12165.92014309 .00000620 00000-0 19019-3 0 01676
2 37839 019.9624 018.0225 0018755 185.8980 174.1127 14.12060277034781
SRMSAT
1 37841U 11058D 12165.89947223 .00000264 00000-0 00000-0 0 01687
2 37841 019.9723 022.9606 0011794 157.3933 202.7030 14.10143625034732
RAX-2
1 37853U 11061D 12166.55037444 .00004951 00000-0 39758-3 0 2035
2 37853 101.7159 205.5346 0246781 358.4719 001.5698 14.80049829 34003
AUBIESAT
1 37854U 11061E 12165.89759026 .00005327 00000-0 42224-3 0 02040
2 37854 101.7165 204.8229 0246797 359.8360 000.2719 14.80423964033901
HRBE
1 37855U 11061F 12165.97849439 .00004872 00000-0 38607-3 0 02086
2 37855 101.7194 204.9043 0248459 359.5765 000.5188 14.80280225033917
RS-39
1 38051U 11062C 12166.44458451 .00009292 00000-0 38740-3 0 4226
2 38051 051.6378 172.9045 0013263 028.8630 106.3043 15.24305501 21555
E-STAR
1 38079U 12006C 12166.47674800 .00028422 00000-0 69436-3 0 2888
2 38079 069.4946 321.8730 0745652 251.2562 100.6227 14.14613241 17208
GOLIAT
1 38085U 12006J 12165.82964299 .00028370 00000-0 69034-3 0 2669
2 38085 069.4980 323.5968 0750721 252.3007 099.4894 14.13613711 17109
HORYU-2
1 38340U 12025D 12165.89967508 .00001637 00000-0 28131-3 0 328
2 38340 098.1734 105.6194 0012812 346.4388 013.6554 14.69980213 3996
/EX
More information about the Keps
mailing list